Regional Weather Roundup
Issued by NWS Green Bay, WI

Home | Current Version | Previous Version | Graphics & Text | Print | Product List | Glossary Off
Versions: 1 2 3 4 5 6 7 8 9 10 11 12 13 14 15 16 17 18 19 20 21 22 23 24 25 26 27 28 29 30 31 32 33 34 35 36 37 38 39 40 41 42 43 44 45 46 47 48 49 50

977
ASUS43 KGRB 311100
RWRGRB

NORTH-CENTRAL AND NORTHEAST WISCONSIN REGIONAL WEATHER ROUNDUP
NATIONAL WEATHER SERVICE GREEN BAY WI
600 AM CDT WED AUG 31 2016

WIZ005-009-010>012-018-019-311200-
NORTH CENTRAL WISCONSIN

CITY           SKY/WX    TMP DP  RH WIND       PRES   REMARKS
IRONWOOD       CLEAR     47  46  97 CALM      30.18S FOG
MANITOWISH WTR NOT AVBL
ARBOR VITAE    NOT AVBL
EAGLE RIVER    NOT AVBL
LAND O LAKES   NOT AVBL
RHINELANDER    CLEAR     46  46 100 CALM      30.17S
PHILLIPS         N/A     46  46 100 CALM      30.17F FOG
ANTIGO         NOT AVBL
TOMAHAWK       NOT AVBL
MERRILL        CLEAR     44  44 100 CALM      30.17S
$$

WIZ013-073-311200-
NORTHEAST WISCONSIN

CITY           SKY/WX    TMP DP  RH WIND       PRES   REMARKS
IRON MOUNTAIN  CLEAR     49  45  86 NW3       30.12S
MARINETTE      CLEAR    N/A N/A N/A MISG      30.12R
$$

WIZ017-030-035>037-045-311200-
CENTRAL WISCONSIN

CITY           SKY/WX    TMP DP  RH WIND       PRES   REMARKS
MEDFORD        NOT AVBL
WAUSAU         CLEAR     52  50  93 NW3       30.14S
MOSINEE        NOT AVBL
MARSHFIELD     CLEAR     52  49  89 NW6       30.15S
WISC RAPIDS    CLEAR     53  52  96 N3        30.16S
STEVENS POINT  NOT AVBL
WAUPACA        NOT AVBL
SHAWANO        NOT AVBL
CLINTONVILLE   CLEAR     54  52  94 CALM      30.13R
WAUTOMA        CLEAR     53  51  93 CALM      30.14S
$$

WIZ038-039-048-051-311200-
FOX VALLEY

CITY           SKY/WX    TMP DP  RH WIND       PRES   REMARKS
NWS GREEN BAY  CLEAR     55  55 100 NW3       30.11S
APPLETON       PTCLDY    57  57 100 N8        30.11R
OSHKOSH        CLEAR     59  56  89 N6        30.11R
FOND DU LAC    PTCLDY    64  55  72 N8        30.11S
$$

WIZ022-050-052-311200-
EAST CENTRAL WISCONSIN

CITY           SKY/WX    TMP DP  RH WIND       PRES   REMARKS
EPHRAIM        NOT AVBL
WASHINGTON ISL NOT AVBL
STURGEON BAY   CLEAR     61  56  83 NW6       30.11S
MANITOWOC      NOT AVBL
SHEBOYGAN      CLEAR     59  54  83 N9        30.10R
$$

LMZ563-521-522-541>543-311200-
LAKESHORE

STATION/POSITION TIME  TEMP    WIND        PRES    VSBY  WAVE
                       AIR SEA DIR/SP/G                  HT/PER
                 (UTC) (F)     (DEG/KT/KT) (MB)    (MI)  (FT/S)
SHEBOYGAN LKSHOR 1000   63     350/ 14/ 15 1018.0R
KEWAUNEE LKSHORE 1000   60     320/  3/  5 1018.6R
ALGOMA MARINA    1015          340/  6/  7   N/A
NORTHPORT PIER   1000   66     350/ 11/ 13 1019.0R
N MID LAKE BUOY  0950   66 71  350/ 14/ 17 1017.7          2/ 4
CHAMBERS ISLAND  1000   63     290/  4/  8 1019.3R
MENOMINEE LKSHOR 1000   58     290/  4/  6 1018.6R
$$




USA.gov is the U.S. government's official web portal to all federal, state and local government web resources and services.